.
WxDataArchive / Data Records for 2012-01-14
2012-01-13 January 2012 2012-01-15

Data Records for Saturday, 14 January 2012

Time	Temp	Chill	HIndex	Humid	Dewpt	 Wind 	HiWind	WindDir	Rain 	Barom 
-----	----	-----	------	-----	-----	------	------	-------	-----	----- 
00:00	18.4	18.4	18.4	81	13.6	2	5	248	0.00	30.059 
00:05	18.3	18.3	18.3	81	13.5	2	6	248	0.00	30.059 
00:10	18.3	18.3	18.3	81	13.5	3	6	248	0.00	30.059 
00:15	18.1	18.1	18.1	81	13.3	2	5	248	0.00	30.056 
00:20	18.1	18.1	18.1	81	13.3	2	6	248	0.00	30.056 
00:25	18.1	18.1	18.1	81	13.3	2	5	248	0.00	30.056 
00:30	18.0	18.0	18.0	81	13.2	3	6	248	0.00	30.058 
00:35	18.0	18.0	18.0	81	13.2	2	5	248	0.00	30.058 
00:40	18.0	18.0	18.0	81	13.2	2	5	248	0.00	30.058 
00:45	17.8	17.8	17.8	81	13.0	2	6	248	0.00	30.061 
00:50	17.8	17.8	17.8	81	13.0	2	5	270	0.00	30.061 
00:55	17.8	17.8	17.8	81	13.0	2	6	248	0.00	30.061 
01:00	17.8	17.8	17.8	81	13.0	2	4	248	0.00	30.063 
01:05	17.8	17.8	17.8	81	13.0	2	6	248	0.00	30.063 
01:10	17.8	17.8	17.8	81	13.0	2	5	248	0.00	30.063 
01:15	17.8	17.8	17.8	81	13.0	2	5	248	0.00	30.063 
01:20	17.8	17.8	17.8	81	13.0	2	4	248	0.00	30.063 
01:25	17.8	17.8	17.8	81	13.0	2	5	248	0.00	30.063 
01:30	17.8	17.8	17.8	81	13.0	2	5	248	0.00	30.065 
01:35	17.8	17.8	17.8	81	13.0	3	7	270	0.00	30.065 
01:40	17.8	17.8	17.8	81	13.0	3	6	248	0.00	30.065 
01:45	17.8	17.8	17.8	81	13.0	2	4	248	0.00	30.067 
01:50	18.0	18.0	18.0	81	13.2	1	5	248	0.00	30.067 
01:55	17.8	17.8	17.8	81	13.0	2	5	248	0.00	30.067 
02:00	17.8	17.8	17.8	81	13.0	2	5	248	0.00	30.070 
02:05	17.8	17.8	17.8	81	13.0	2	6	248	0.00	30.070 
02:10	17.8	17.8	17.8	81	13.0	2	4	248	0.00	30.070 
02:15	17.8	17.8	17.8	81	13.0	2	5	248	0.00	30.081 
02:20	17.8	17.8	17.8	81	13.0	3	7	248	0.00	30.081 
02:25	17.7	17.7	17.7	81	12.9	2	5	248	0.00	30.081 
02:30	17.7	17.7	17.7	80	12.6	3	9	248	0.00	30.081 
02:35	17.7	17.7	17.7	80	12.6	3	6	270	0.00	30.081 
02:40	17.7	17.7	17.7	80	12.6	2	6	248	0.00	30.081 
02:45	17.7	17.7	17.7	80	12.6	3	6	270	0.00	30.082 
02:50	17.7	17.7	17.7	80	12.6	2	6	248	0.00	30.082 
02:55	17.7	17.7	17.7	80	12.6	1	4	248	0.00	30.082 
03:00	17.5	17.5	17.5	80	12.4	2	5	292	0.00	30.082 
03:05	17.5	17.5	17.5	80	12.4	2	4	248	0.00	30.082 
03:10	17.5	17.5	17.5	80	12.4	2	6	248	0.00	30.082 
03:15	17.5	17.5	17.5	80	12.4	2	9	248	0.00	30.083 
03:20	17.5	17.5	17.5	80	12.4	1	4	225	0.00	30.083 
03:25	17.5	17.5	17.5	80	12.4	1	3	225	0.00	30.083 
03:30	17.5	17.5	17.5	80	12.4	1	5	248	0.00	30.082 
03:35	17.3	17.3	17.3	80	12.2	2	6	248	0.00	30.082 
03:40	17.3	17.3	17.3	80	12.2	2	5	248	0.00	30.082 
03:45	17.2	17.2	17.2	80	12.1	1	3	248	0.00	30.081 
03:50	17.2	17.2	17.2	80	12.1	2	5	248	0.00	30.081 
03:55	17.2	17.2	17.2	80	12.1	1	4	248	0.00	30.081 
04:00	17.2	17.2	17.2	80	12.1	2	5	248	0.00	30.080 
04:05	17.2	17.2	17.2	80	12.1	1	4	248	0.00	30.080 
04:10	17.2	17.2	17.2	80	12.1	3	10	248	0.00	30.080 
04:15	17.2	17.2	17.2	80	12.1	2	5	248	0.00	30.084 
04:20	17.0	17.0	17.0	80	11.9	1	5	248	0.00	30.084 
04:25	17.0	17.0	17.0	80	11.9	2	5	248	0.00	30.084 
04:30	16.9	16.9	16.9	80	11.8	2	5	248	0.00	30.089 
04:35	16.9	16.9	16.9	80	11.8	2	4	248	0.00	30.089 
04:40	16.9	16.9	16.9	80	11.8	2	5	248	0.00	30.089 
04:45	16.9	16.9	16.9	79	11.5	2	7	248	0.00	30.091 
04:50	16.9	16.9	16.9	79	11.5	1	5	248	0.00	30.091 
04:55	16.9	16.9	16.9	80	11.8	2	4	248	0.00	30.091 
05:00	16.9	16.9	16.9	80	11.8	1	5	248	0.00	30.094 
05:05	16.7	16.7	16.7	80	11.6	2	5	248	0.00	30.094 
05:10	16.7	16.7	16.7	79	11.3	2	4	248	0.00	30.094 
05:15	16.7	16.7	16.7	79	11.3	2	5	248	0.00	30.093 
05:20	16.7	16.7	16.7	79	11.3	2	5	248	0.00	30.093 
05:25	16.7	16.7	16.7	80	11.6	2	6	248	0.00	30.093 
05:30	16.7	16.7	16.7	80	11.6	2	6	248	0.00	30.096 
05:35	16.7	16.7	16.7	80	11.6	1	5	248	0.00	30.096 
05:40	16.7	16.7	16.7	80	11.6	1	2	248	0.00	30.096 
05:45	16.7	16.7	16.7	80	11.6	1	4	248	0.00	30.095 
05:50	16.7	16.7	16.7	80	11.6	1	3	248	0.00	30.095 
05:55	16.7	16.7	16.7	80	11.6	1	5	248	0.00	30.095 
06:00	16.7	16.7	16.7	80	11.6	1	3	248	0.00	30.100 
06:05	16.5	16.5	16.5	80	11.4	2	4	270	0.00	30.100 
06:10	16.5	16.5	16.5	80	11.4	1	3	248	0.00	30.100 
06:15	16.4	16.4	16.4	80	11.3	1	6	248	0.00	30.103 
06:20	16.4	16.4	16.4	80	11.3	1	4	248	0.00	30.103 
06:25	16.4	16.4	16.4	80	11.3	1	3	248	0.00	30.103 
06:30	16.4	16.4	16.4	80	11.3	1	4	248	0.00	30.116 
06:35	16.4	16.4	16.4	80	11.3	1	4	248	0.00	30.116 
06:40	16.4	16.4	16.4	80	11.3	1	3	248	0.00	30.116 
06:45	16.4	16.4	16.4	80	11.3	1	4	248	0.00	30.115 
06:50	16.2	16.2	16.2	80	11.1	1	3	248	0.00	30.115 
06:55	16.2	16.2	16.2	80	11.1	1	2	248	0.00	30.115 
07:00	16.2	16.2	16.2	80	11.1	1	4	248	0.00	30.116 
07:05	16.2	16.2	16.2	80	11.1	0	3	248	0.00	30.116 
07:10	16.2	16.2	16.2	80	11.1	1	4	248	0.00	30.116 
07:15	16.2	16.2	16.2	80	11.1	0	4	225	0.00	30.117 
07:20	16.2	16.2	16.2	80	11.1	1	5	248	0.00	30.117 
07:25	16.2	16.2	16.2	80	11.1	0	3	248	0.00	30.117 
07:30	16.1	16.1	16.1	80	11.0	1	3	248	0.00	30.119 
07:35	16.1	16.1	16.1	80	11.0	1	4	248	0.00	30.119 
07:40	15.9	15.9	15.9	80	10.8	0	2	248	0.00	30.119 
07:45	15.9	15.9	15.9	80	10.8	0	2	248	0.00	30.118 
07:50	15.7	15.7	15.7	80	10.6	1	3	248	0.00	30.118 
07:55	15.7	15.7	15.7	80	10.6	0	2	248	0.00	30.118 
08:00	15.6	15.6	15.6	79	10.3	1	3	248	0.00	30.116 
08:05	15.6	15.6	15.6	79	10.3	0	2	248	0.00	30.116 
08:10	15.4	15.4	15.4	80	10.4	1	3	248	0.00	30.116 
08:15	15.4	15.4	15.4	80	10.4	0	1	248	0.00	30.128 
08:20	15.4	15.4	15.4	80	10.4	0	3	248	0.00	30.128 
08:25	15.4	15.4	15.4	80	10.4	1	3	248	0.00	30.128 
08:30	15.4	15.4	15.4	80	10.4	0	1	248	0.00	30.130 
08:35	15.4	15.4	15.4	80	10.4	0	1	248	0.00	30.130 
08:40	15.4	15.4	15.4	80	10.4	0	3	248	0.00	30.130 
08:45	15.4	15.4	15.4	80	10.4	0	2	248	0.00	30.139 
08:50	15.4	15.4	15.4	79	10.1	0	2	248	0.00	30.139 
08:55	15.4	15.4	15.4	80	10.4	0	2	248	0.00	30.139 
09:00	15.6	15.6	15.6	80	10.6	1	3	248	0.00	30.148 
09:05	15.7	15.7	15.7	80	10.6	0	2	248	0.00	30.148 
09:10	15.9	15.9	15.9	79	10.6	1	3	248	0.00	30.148 
09:15	15.9	15.9	15.9	79	10.6	1	5	248	0.00	30.159 
09:20	15.9	15.9	15.9	79	10.6	1	4	225	0.00	30.159 
09:25	16.1	16.1	16.1	79	10.8	1	3	248	0.00	30.159 
09:30	16.1	16.1	16.1	79	10.8	1	4	248	0.00	30.163 
09:35	16.2	16.2	16.2	78	10.6	1	4	248	0.00	30.163 
09:40	16.2	16.2	16.2	78	10.6	1	5	248	0.00	30.163 
09:45	16.4	16.4	16.4	78	10.8	0	3	248	0.00	30.164 
09:50	16.4	16.4	16.4	77	10.5	1	2	248	0.00	30.164 
09:55	16.4	16.4	16.4	77	10.5	2	3	248	0.00	30.164 
10:00	16.4	16.4	16.4	75	9.9	2	4	248	0.00	30.171 
10:05	16.5	16.5	16.5	75	10.0	1	4	270	0.00	30.171 
10:10	16.7	16.7	16.7	74	9.9	2	6	248	0.00	30.171 
10:15	16.7	16.7	16.7	74	9.9	2	5	248	0.00	30.175 
10:20	16.9	16.9	16.9	73	9.8	1	3	248	0.00	30.175 
10:25	17.0	17.0	17.0	73	9.9	1	3	248	0.00	30.175 
10:30	17.3	17.3	17.3	73	10.2	0	3	248	0.00	30.177 
10:35	17.3	17.3	17.3	72	9.8	1	3	248	0.00	30.177 
10:40	17.5	17.5	17.5	72	10.0	1	4	248	0.00	30.177 
10:45	17.5	17.5	17.5	72	10.0	1	4	248	0.00	30.178 
10:50	17.5	17.5	17.5	72	10.0	1	4	270	0.00	30.178 
10:55	17.5	17.5	17.5	72	10.0	1	4	270	0.00	30.178 
11:00	17.3	17.3	17.3	72	9.8	1	4	270	0.00	30.177 
11:05	17.3	17.3	17.3	72	9.8	1	3	248	0.00	30.177 
11:10	17.7	17.7	17.7	73	10.5	1	2	248	0.00	30.177 
11:15	18.1	18.1	18.1	73	10.9	1	3	248	0.00	30.175 
11:20	18.4	18.4	18.4	73	11.2	0	2	248	0.00	30.175 
11:25	18.6	18.6	18.6	72	11.1	1	3	248	0.00	30.175 
11:30	18.8	18.8	18.8	72	11.3	1	3	248	0.00	30.175 
11:35	18.6	18.6	18.6	71	10.8	1	4	248	0.00	30.175 
11:40	18.4	18.4	18.4	71	10.6	1	4	248	0.00	30.175 
11:45	18.6	18.6	18.6	71	10.8	2	7	248	0.00	30.171 
11:50	18.6	18.6	18.6	71	10.8	1	4	248	0.00	30.171 
11:55	18.6	18.6	18.6	70	10.5	1	4	248	0.00	30.171 
12:00	18.4	18.4	18.4	71	10.6	1	4	248	0.00	30.170 
12:05	18.6	18.6	18.6	71	10.8	1	3	248	0.00	30.170 
12:10	18.8	18.8	18.8	71	11.0	1	3	270	0.00	30.170 
12:15	19.1	19.1	19.1	71	11.3	1	3	270	0.00	30.162 
12:20	19.1	19.1	19.1	70	11.0	1	3	270	0.00	30.162 
12:25	19.2	19.2	19.2	70	11.0	1	4	270	0.00	30.162 
12:30	19.4	19.4	19.4	70	11.2	1	4	270	0.00	30.158 
12:35	19.4	19.4	19.4	69	10.9	1	3	248	0.00	30.158 
12:40	19.5	19.5	19.5	69	11.0	1	4	248	0.00	30.158 
12:45	19.4	19.4	19.4	68	10.6	2	5	248	0.00	30.152 
12:50	19.2	19.2	19.2	69	10.7	1	4	270	0.00	30.152 
12:55	19.4	19.4	19.4	69	10.9	1	3	248	0.00	30.152 
13:00	19.5	19.5	19.5	70	11.3	1	4	248	0.00	30.148 
13:05	19.7	19.7	19.7	70	11.5	1	4	248	0.00	30.148 
13:10	19.7	19.7	19.7	69	11.2	1	3	248	0.00	30.148 
13:15	19.5	19.5	19.5	69	11.0	1	3	248	0.00	30.140 
13:20	19.5	19.5	19.5	70	11.3	1	4	248	0.00	30.140 
13:25	19.9	19.9	19.9	70	11.7	0	2	248	0.00	30.140 
13:30	20.0	20.0	20.0	70	11.8	1	2	248	0.00	30.135 
13:35	19.9	19.9	19.9	69	11.4	1	2	248	0.00	30.135 
13:40	19.7	19.7	19.7	69	11.2	0	2	248	0.00	30.135 
13:45	19.9	19.9	19.9	70	11.7	0	1	248	0.00	30.130 
13:50	20.2	20.2	20.2	70	12.0	0	2	248	0.00	30.130 
13:55	20.2	20.2	20.2	69	11.7	0	2	248	0.00	30.130 
14:00	20.3	20.3	20.3	69	11.8	1	2	248	0.00	30.129 
14:05	20.3	20.3	20.3	70	12.1	1	2	248	0.00	30.129 
14:10	20.0	20.0	20.0	69	11.5	1	3	248	0.00	30.129 
14:15	20.0	20.0	20.0	69	11.5	0	2	0	0.00	30.132 
14:20	20.2	20.2	20.2	69	11.7	0	3	270	0.00	30.132 
14:25	20.2	20.2	20.2	69	11.7	1	3	270	0.00	30.132 
14:30	19.9	19.9	19.9	68	11.1	1	3	270	0.00	30.132 
14:35	20.0	20.0	20.0	69	11.5	0	2	270	0.00	30.132 
14:40	20.3	20.3	20.3	69	11.8	0	1	270	0.00	30.132 
14:45	20.5	20.5	20.5	68	11.6	0	2	270	0.00	30.130 
14:50	20.5	20.5	20.5	68	11.6	0	2	270	0.00	30.130 
14:55	20.5	20.5	20.5	68	11.6	0	2	270	0.00	30.130 
15:00	20.6	20.6	20.6	69	12.1	0	2	270	0.00	30.129 
15:05	20.5	20.5	20.5	69	12.0	0	2	270	0.00	30.129 
15:10	20.3	20.3	20.3	69	11.8	0	2	270	0.00	30.129 
15:15	20.2	20.2	20.2	69	11.7	0	2	270	0.00	30.133 
15:20	20.0	20.0	20.0	69	11.5	0	1	270	0.00	30.133 
15:25	19.9	19.9	19.9	69	11.4	0	1	270	0.00	30.133 
15:30	19.9	19.9	19.9	69	11.4	0	2	270	0.00	30.134 
15:35	19.7	19.7	19.7	69	11.2	0	2	270	0.00	30.134 
15:40	19.7	19.7	19.7	69	11.2	0	2	270	0.00	30.134 
15:45	19.7	19.7	19.7	68	10.9	1	2	270	0.00	30.142 
15:50	19.5	19.5	19.5	68	10.7	0	2	270	0.00	30.142 
15:55	19.5	19.5	19.5	68	10.7	0	2	270	0.00	30.142 
16:00	19.5	19.5	19.5	69	11.0	0	2	270	0.00	30.145 
16:05	19.5	19.5	19.5	68	10.7	0	2	270	0.00	30.145 
16:10	19.5	19.5	19.5	68	10.7	0	2	270	0.00	30.145 
16:15	19.4	19.4	19.4	68	10.6	0	2	270	0.00	30.147 
16:20	19.4	19.4	19.4	68	10.6	0	2	270	0.00	30.147 
16:25	19.2	19.2	19.2	68	10.4	0	1	270	0.00	30.147 
16:30	19.2	19.2	19.2	69	10.7	0	2	270	0.00	30.149 
16:35	19.2	19.2	19.2	69	10.7	0	2	270	0.00	30.149 
16:40	19.2	19.2	19.2	69	10.7	0	1	270	0.00	30.149 
16:45	19.2	19.2	19.2	69	10.7	0	2	270	0.00	30.150 
16:50	19.1	19.1	19.1	69	10.6	0	0	---	0.00	30.150 
16:55	19.1	19.1	19.1	69	10.6	0	1	270	0.00	30.150 
17:00	19.1	19.1	19.1	69	10.6	0	1	270	0.00	30.160 
17:05	18.9	18.9	18.9	69	10.4	0	1	270	0.00	30.160 
17:10	18.9	18.9	18.9	69	10.4	0	2	270	0.00	30.160 
17:15	18.9	18.9	18.9	69	10.4	0	2	270	0.00	30.163 
17:20	18.8	18.8	18.8	69	10.3	0	2	270	0.00	30.163 
17:25	18.6	18.6	18.6	69	10.2	0	2	270	0.00	30.163 
17:30	18.4	18.4	18.4	69	10.0	1	3	270	0.00	30.177 
17:35	18.3	18.3	18.3	69	9.9	0	2	270	0.00	30.177 
17:40	18.3	18.3	18.3	69	9.9	0	1	270	0.00	30.177 
17:45	18.1	18.1	18.1	69	9.7	0	1	270	0.00	30.182 
17:50	18.1	18.1	18.1	69	9.7	0	2	270	0.00	30.182 
17:55	18.1	18.1	18.1	69	9.7	0	2	270	0.00	30.182 
18:00	18.1	18.1	18.1	69	9.7	0	1	270	0.00	30.192 
18:05	18.0	18.0	18.0	69	9.6	0	1	270	0.00	30.192 
18:10	18.1	18.1	18.1	70	10.0	0	0	---	0.00	30.192 
18:15	18.1	18.1	18.1	70	10.0	0	0	---	0.00	30.197 
18:20	18.1	18.1	18.1	70	10.0	0	1	270	0.00	30.197 
18:25	18.0	18.0	18.0	70	9.9	0	1	270	0.00	30.197 
18:30	18.0	18.0	18.0	69	9.6	0	1	270	0.00	30.203 
18:35	18.0	18.0	18.0	69	9.6	0	1	270	0.00	30.203 
18:40	18.0	18.0	18.0	69	9.6	0	1	270	0.00	30.203 
18:45	18.0	18.0	18.0	69	9.6	0	2	270	0.00	30.209 
18:50	18.0	18.0	18.0	69	9.6	0	1	270	0.00	30.209 
18:55	17.8	17.8	17.8	69	9.4	0	1	270	0.00	30.209 
19:00	17.8	17.8	17.8	69	9.4	0	1	270	0.00	30.210 
19:05	17.8	17.8	17.8	69	9.4	0	1	270	0.00	30.210 
19:10	17.8	17.8	17.8	69	9.4	0	1	270	0.00	30.210 
19:15	17.8	17.8	17.8	69	9.4	0	1	270	0.00	30.214 
19:20	17.8	17.8	17.8	70	9.7	0	0	---	0.00	30.214 
19:25	17.8	17.8	17.8	70	9.7	0	1	270	0.00	30.214 
19:30	17.8	17.8	17.8	70	9.7	0	0	---	0.00	30.225 
19:35	17.7	17.7	17.7	70	9.6	0	1	270	0.00	30.225 
19:40	17.8	17.8	17.8	70	9.7	0	1	270	0.00	30.225 
19:45	17.7	17.7	17.7	70	9.6	0	1	270	0.00	30.226 
19:50	17.7	17.7	17.7	70	9.6	0	0	---	0.00	30.226 
19:55	17.7	17.7	17.7	70	9.6	0	0	---	0.00	30.226 
20:00	17.5	17.5	17.5	70	9.4	0	0	---	0.00	30.227 
20:05	17.5	17.5	17.5	70	9.4	0	0	---	0.00	30.227 
20:10	17.5	17.5	17.5	71	9.7	0	0	---	0.00	30.227 
20:15	17.5	17.5	17.5	71	9.7	0	0	---	0.00	30.237 
20:20	17.5	17.5	17.5	71	9.7	0	0	---	0.00	30.237 
20:25	17.5	17.5	17.5	72	10.0	0	0	---	0.00	30.237 
20:30	17.5	17.5	17.5	72	10.0	0	0	---	0.00	30.241 
20:35	17.5	17.5	17.5	72	10.0	0	0	---	0.00	30.241 
20:40	17.5	17.5	17.5	72	10.0	0	0	---	0.00	30.241 
20:45	17.3	17.3	17.3	72	9.8	0	0	---	0.00	30.245 
20:50	17.3	17.3	17.3	72	9.8	0	0	---	0.00	30.245 
20:55	17.3	17.3	17.3	73	10.2	0	0	---	0.00	30.245 
21:00	17.3	17.3	17.3	73	10.2	0	0	---	0.00	30.253 
21:05	17.3	17.3	17.3	73	10.2	0	0	---	0.00	30.253 
21:10	17.3	17.3	17.3	73	10.2	0	0	---	0.00	30.253 
21:15	17.2	17.2	17.2	73	10.1	0	0	---	0.00	30.256 
21:20	17.2	17.2	17.2	73	10.1	0	0	---	0.00	30.256 
21:25	17.2	17.2	17.2	73	10.1	0	0	---	0.00	30.256 
21:30	17.2	17.2	17.2	73	10.1	0	0	---	0.00	30.259 
21:35	17.2	17.2	17.2	73	10.1	0	0	---	0.00	30.259 
21:40	17.2	17.2	17.2	74	10.4	0	0	---	0.00	30.259 
21:45	17.2	17.2	17.2	74	10.4	0	0	---	0.00	30.262 
21:50	17.2	17.2	17.2	74	10.4	0	0	---	0.00	30.262 
21:55	17.2	17.2	17.2	74	10.4	0	0	---	0.00	30.262 
22:00	17.2	17.2	17.2	74	10.4	0	0	---	0.00	30.262 
22:05	17.2	17.2	17.2	74	10.4	0	0	---	0.00	30.262 
22:10	17.2	17.2	17.2	74	10.4	0	0	---	0.00	30.262 
22:15	17.2	17.2	17.2	74	10.4	0	0	---	0.00	30.262 
22:20	17.2	17.2	17.2	74	10.4	0	0	---	0.00	30.262 
22:25	17.2	17.2	17.2	75	10.7	0	0	---	0.00	30.262 
22:30	17.2	17.2	17.2	74	10.4	0	0	---	0.00	30.266 
22:35	17.2	17.2	17.2	74	10.4	0	0	---	0.00	30.266 
22:40	17.2	17.2	17.2	74	10.4	0	0	---	0.00	30.266 
22:45	17.2	17.2	17.2	74	10.4	0	0	---	0.00	30.270 
22:50	17.2	17.2	17.2	74	10.4	0	0	---	0.00	30.270 
22:55	17.0	17.0	17.0	74	10.2	0	0	---	0.00	30.270 
23:00	17.0	17.0	17.0	74	10.2	0	0	---	0.00	30.272 
23:05	16.9	16.9	16.9	74	10.1	0	1	270	0.00	30.272 
23:10	16.9	16.9	16.9	74	10.1	0	1	270	0.00	30.272 
23:15	16.7	16.7	16.7	73	9.6	0	0	---	0.00	30.273 
23:20	16.5	16.5	16.5	73	9.4	0	0	---	0.00	30.273 
23:25	16.4	16.4	16.4	73	9.3	0	0	---	0.00	30.273 
23:30	16.4	16.4	16.4	73	9.3	0	0	---	0.00	30.274 
23:35	16.1	16.1	16.1	73	9.0	0	0	---	0.00	30.274 
23:40	15.9	15.9	15.9	73	8.8	0	0	---	0.00	30.274 
23:45	15.6	15.6	15.6	73	8.5	0	0	---	0.00	30.275 
23:50	15.2	15.2	15.2	74	8.4	0	0	---	0.00	30.275 
23:55	14.9	14.9	14.9	74	8.1	0	0	---	0.00	30.275 

CoCoRaHS
IN-AL-39
A2 Web Hosting
Creative Commons License
GoDaddy
search engine by freefind advanced

loaded 2018-11-15 13:34:41 • last modified 2010-11-18 10:43:29
Privacy PolicyDisclaimer
• wx.awcolley.com is powered by PmWiki v.2002016 •
• all content (unless otherwise noted) © 2018 A W Colley